Chicago DuPage, IL

10:33 PM CDT on May 20, 2018 (GMT -0500)
Du Page

Weather History for KDPA - November, 2011

Change the Weather History Date:

Wednesday, November 16, 2011

  Actual Average Record
Temperature  
Mean Temperature 34 °F 40 °F  
Max Temperature 41 °F 49 °F 63 °F (2001)
Min Temperature 26 °F 31 °F 12 °F (1997)
Degree Days  
Heating Degree Days 32 25  
Month to date heating degree days 341  
Since 1 July heating degree days 852  
Cooling Degree Days 0 0  
Month to date cooling degree days 0  
Year to date cooling degree days 814  
Moisture  
Dew Point 16 °F    
Average Humidity 48    
Maximum Humidity 63    
Minimum Humidity 27    
Precipitation  
Precipitation 0.00 in 0.12 in 0.24 in (2013)
Month to date precipitation 1.73  
Year to date precipitation 33.84  
Sea Level Pressure  
Sea Level Pressure 30.06 in    
Wind  
Wind Speed 13 mph (West)    
Max Wind Speed 18 mph    
Max Gust Speed 30 mph    
Visibility 10 miles    
Events      
T = Trace of Precipitation, MM = Missing Value Source: NWS Daily Summary

Daily Weather History Graph

Daily Weather History Graph

Search for Another Location

Airport or City:

Astronomy

Nov. 16, 2011 Rise Set
Actual Time 6:43 AM CST 4:31 PM CST
Civil Twilight 6:13 AM CST 5:01 PM CST
Nautical Twilight 5:39 AM CST 5:35 PM CST
Astronomical Twilight 5:06 AM CST 6:08 PM CST
Moon 9:45 PM CST (11/16) 11:19 AM CST (11/16)
Length of Visible Light 10h 47m
Length of Day
9h 47m
Waning Gibbous, 70% of the Moon is Illuminated
Nov 16
Waning Gibbous
Nov 18
Last Quarter
Nov 25
New
Dec 2
First Quarter
Dec 10
Full

Hourly Weather History & Observations

Time (CST) Temp. Windchill Dew Point Humidity Pressure Visibility Wind Dir Wind Speed Gust Speed Precip Events Conditions
12:52 AM 41.0 °F 32.8 °F 25.0 °F 53% 29.88 in 10.0 mi WNW 16.1 mph 21.9 mph N/A   Clear
1:52 AM 39.9 °F 32.1 °F 21.0 °F 47% 29.93 in 10.0 mi WNW 13.8 mph 23.0 mph N/A   Clear
2:52 AM 37.0 °F 29.3 °F 21.0 °F 52% 29.92 in 10.0 mi WNW 11.5 mph - N/A   Clear
3:52 AM 36.0 °F 27.5 °F 19.9 °F 52% 29.93 in 10.0 mi WNW 12.7 mph - N/A   Clear
4:52 AM 35.1 °F 26.9 °F 19.0 °F 52% 29.94 in 10.0 mi WNW 11.5 mph - N/A   Clear
5:52 AM 33.1 °F 24.4 °F 19.0 °F 56% 29.98 in 10.0 mi WNW 11.5 mph - N/A   Clear
6:52 AM 33.1 °F 23.0 °F 18.0 °F 54% 30.00 in 10.0 mi WNW 15.0 mph - N/A   Clear
7:52 AM 33.1 °F 22.2 °F 19.0 °F 56% 30.03 in 10.0 mi WNW 17.3 mph 29.9 mph N/A   Clear
8:52 AM 32.0 °F 20.8 °F 17.1 °F 54% 30.06 in 10.0 mi WNW 17.3 mph 26.5 mph N/A   Clear
9:52 AM 36.0 °F 27.1 °F 16.0 °F 44% 30.07 in 10.0 mi NW 13.8 mph 24.2 mph N/A   Clear
10:52 AM 37.0 °F 28.1 °F 15.1 °F 41% 30.06 in 10.0 mi WNW 15.0 mph 27.6 mph N/A   Clear
11:52 AM 37.9 °F 29.2 °F 15.1 °F 39% 30.06 in 10.0 mi WNW 15.0 mph 23.0 mph N/A   Clear
12:52 PM 39.9 °F 30.8 °F 15.1 °F 36% 30.06 in 10.0 mi WNW 18.4 mph 23.0 mph N/A   Clear
1:52 PM 41.0 °F 32.5 °F 10.9 °F 29% 30.08 in 10.0 mi WNW 17.3 mph 26.5 mph N/A   Clear
2:52 PM 41.0 °F 32.8 °F 9.0 °F 27% 30.10 in 10.0 mi NW 16.1 mph - N/A   Clear
3:52 PM 39.0 °F 32.3 °F 10.9 °F 32% 30.12 in 10.0 mi WNW 10.4 mph - N/A   Clear
4:52 PM 35.1 °F 29.3 °F 10.9 °F 37% 30.13 in 10.0 mi West 6.9 mph - N/A   Clear
6:52 PM 28.9 °F 22.8 °F 12.9 °F 51% 30.17 in 10.0 mi WSW 5.8 mph - N/A   Clear
7:52 PM 27.0 °F 20.5 °F 14.0 °F 58% 30.17 in 10.0 mi SW 5.8 mph - N/A   Clear
8:52 PM 26.1 °F 18.4 °F 14.0 °F 60% 30.17 in 10.0 mi SSW 6.9 mph - N/A   Clear
9:52 PM 26.1 °F 17.6 °F 15.1 °F 63% 30.16 in 10.0 mi SSW 8.1 mph - N/A   Clear
10:52 PM 28.0 °F 20.0 °F 15.1 °F 58% 30.14 in 10.0 mi SW 8.1 mph - N/A   Clear
11:52 PM 28.0 °F 20.0 °F 15.1 °F 58% 30.14 in 10.0 mi SW 8.1 mph - N/A   Clear